Location: *
(46.4000°N, 12.6667°E)
Time: 13:47:46
(UTC+00:00)

Envisat - Pass Details

Date: 10 March 2021
Orbit: 764 x 766 km, 98.1° (Epoch: 17 April)

Event Time Altitude Azimuth Distance (km) Brightness Sun altitude
Rises 03:58:10 0° 23° (NNE) 3,243 6.8 -16.9°
Reaches altitude 10° 04:00:49 10° 36° (NE) 2,312 6.2 -16.4°
Maximum altitude 04:05:08 27° 94° (E) 1,430 5.2 -15.7°
Drops below altitude 10° 04:09:25 10° 152° (SSE) 2,296 5.7 -15.0°
Sets 04:12:02 0° 164° (SSE) 3,216 6.3 -14.5°
